Regional Weather Roundup
Issued by NWS

Home | Current Version | Previous Version | Text Only | Print | Product List | Glossary On
Versions: 1 2 3 4 5 6 7 8 9 10 11 12 13 14 15 16 17 18 19 20 21 22 23 24 25 26 27 28 29 30 31 32 33 34 35 36 37 38 39 40 41 42 43 44 45 46 47 48 49 50
000
ASUS45 KABQ 302201
RWRNM
WEATHER ROUNDUP FOR NEW MEXICO
NATIONAL WEATHER SERVICE ALBUQUERQUE NM
400 PM MDT WED JUL 30 2014

NOTE: "FAIR" MEANS FEW OR NO CLOUDS BELOW 12,000 FEET AGL WITH NO
       SIGNIFICANT WEATHER OR OBSTRUCTIONS TO VISION.

      THIS PRODUCT IS RELEASED AS TWO VERSIONS.  ONE VERSION NEAR
      THE TOP OF THE HOUR CONTAINING PRELIMINARY DATA FROM ALBUQUERQUE
      AND OTHER STATIONS.  A FINAL VERSION WITH ADDITIONAL DATA IS
      ISSUED ABOUT 10 MINUTES AFTER THE HOUR.

NMZ501-503-504-510>518-302300-
NORTHWEST PLATEAU/NORTHCENTRAL MOUNTAINS

CITY           SKY/WX    TMP DP  RH WIND       PRES   REMARKS
FARMINGTON     MOSUNNY   87  44  22 NW10G21   30.14F
LOS ALAMOS     PTSUNNY   74  52  47 S8        30.29F
SANTA FE       PTSUNNY   82  51  34 VRB3      30.22F
TAOS           PTSUNNY   72  50  46 SW14G20   30.29S
ANGEL FIRE     CLOUDY    64  54  71 E18G26    30.39R

$$
NMZ402-403-502-505>509-302300-
WESTCENTRAL MOUNTAINS/SOUTHWEST MOUNTAINS

CITY           SKY/WX    TMP DP  RH WIND       PRES   REMARKS
GALLUP         MOSUNNY   87  46  24 NW14G28   30.23F

$$
NMZ407-409-411-412-302300-
SOUTHERN DESERTS

CITY           SKY/WX    TMP DP  RH WIND       PRES   REMARKS
LORDSBURG      FAIR      93  48  21 NW3       30.06F
DEMING         SUNNY     97  48  18 W12       30.04F
LAS CRUCES     SUNNY     95  48  20 SE6       30.08S
HOLLOMAN AFB   MOSUNNY   95  50  21 N12       30.02F
T OR C         SUNNY     95  50  21 NE8       30.07F

$$
NMZ519>523-302300-
CENTRAL VALLEYS/CENTRAL HIGHLANDS

CITY           SKY/WX    TMP DP  RH WIND       PRES   REMARKS
ALBUQUERQUE    MOSUNNY   88  52  29 SE3       30.15F
DOUBLE EAGLE   PTSUNNY   86  52  30 W10G16    30.19F
CLINES CORNERS MOSUNNY   71  57  61 E15       30.29S
BELEN          FAIR      88  51  27 N5        30.13F
SOCORRO        FAIR      92  49  22 NE6       30.10F

$$
NMZ524>526-539-540-302300-
SOUTHCENTRAL MOUNTAINS

CITY           SKY/WX    TMP DP  RH WIND       PRES   REMARKS
RUIDOSO        NOT AVBL

$$
NMZ527>531-302300-
NORTHEAST HIGHLANDS/NORTHEAST PLAINS

CITY           SKY/WX    TMP DP  RH WIND       PRES   REMARKS
LAS VEGAS      TSTM      62  57  83 E17G28    30.32R
RATON          PTSUNNY   68  55  63 NE23      30.29S
CLAYTON        CLOUDY    69  58  67 NE21      30.25S

$$
NMZ532>537-302300-
EASTCENTRAL PLAINS

CITY           SKY/WX    TMP DP  RH WIND       PRES   REMARKS
TUCUMCARI      PTSUNNY   85  58  39 E22G31    30.12S
CANNON AFB     MOSUNNY   83  61  46 NE18      30.13S
CLOVIS AIRPORT NOT AVBL

$$
NMZ028-029-538-302300-
SOUTHEAST PLAINS

CITY           SKY/WX    TMP DP  RH WIND       PRES   REMARKS
ROSWELL        PTSUNNY   89  65  44 NE13      30.02S
ARTESIA        PTSUNNY   82  59  44 W10G33    30.03R
CARLSBAD       LGT RAIN  85  61  44 W30G58    29.99R
HOBBS          MOSUNNY   97  55  24 N17G24    30.00S HX  95


$$



USA.gov is the U.S. government's official web portal to all federal, state and local government web resources and services.